カタログに戻る

CZ-4B DEB

運用中PO
NORAD 37573·DEBRIS·🇨🇳 China

打ち上げ May 27, 2008 から Taiyuan Satellite Launch Center

Loading…

次のパス (今後24時間)

TLE

最新Source: Space-Track

元期: Sep 14, 2026, 07:19 UTC

1 37573U 08026E   26257.30523328  .00000259  00000-0  23048-3 0  9995
2 37573  98.7189 289.5264 0219355 211.2538 209.2849 13.82324885904261

AllMySatでCZ-4B DEBをリアルタイム追跡

Download on the App Store